This demonstration page uses our WeatherBlox Daily Observations layout. Learn more.

39.29038, -76.61219

Hourly Observations for October 5, 2015

Temp ( °F °C ) Dew Point ( °F °C ) Humidity (%) Winds ( mph kmh ) Pressure ( in mb ) Visibility ( mi km ) Precip ( " mm )
12:54 am 00:54 undefined 56 13.3 46 7.8 70 70 undefined N/A 30.19 1022 N/A 0 0
1:54 am 01:54 undefined 55 12.8 46 7.8 72 72 undefined N/A 30.18 1022 N/A 0 0
2:54 am 02:54 undefined 54 12.2 46 7.8 75 75 undefined N/A 30.18 1022 N/A 0 0
3:54 am 03:54 undefined 54 12.2 46 7.8 75 75 undefined N/A 30.17 1022 N/A 0 0
4:54 am 04:54 undefined 54 12.2 46 7.8 75 75 undefined N/A 30.18 1022 N/A 0 0
5:54 am 05:54 undefined 52 11.1 46 7.8 80 80 undefined N/A 30.17 1022 N/A 0 0
6:54 am 06:54 undefined 52 11.1 44 6.7 75 75 undefined N/A 30.18 1022 N/A 0 0
7:54 am 07:54 undefined 52 11.1 44 6.7 75 75 undefined N/A 30.19 1022 N/A 0 0
8:54 am 08:54 undefined 53 11.7 44 6.7 72 72 undefined N/A 30.19 1023 N/A 0 0
9:54 am 09:54 undefined 57 13.9 46 7.8 67 67 undefined N/A 30.19 1023 N/A 0 0
10:54 am 10:54 undefined 59 15 47 8.3 64 64 undefined N/A 30.2 1023 N/A 0 0
11:54 am 11:54 undefined 61 16.1 47 8.3 60 60 undefined N/A 30.19 1023 N/A 0 0
12:54 pm 12:54 undefined 63 17.2 47 8.3 56 56 undefined N/A 30.17 1022 N/A 0 0
1:54 pm 13:54 undefined 64 17.8 48 8.9 56 56 undefined N/A 30.14 1021 N/A 0 0
2:54 pm 14:54 undefined 65 18.3 46 7.8 51 51 undefined N/A 30.14 1021 N/A 0 0
3:54 pm 15:54 undefined 66 18.9 46 7.8 49 49 undefined N/A 30.12 1020 N/A 0 0
4:54 pm 16:54 undefined 65 18.3 46 7.8 51 51 undefined N/A 30.07 1018 N/A 0 0
5:54 pm 17:54 undefined 65 18.3 46 7.8 51 51 undefined N/A 30.08 1019 N/A 0 0
6:54 pm 18:54 undefined 64 17.8 48 8.9 56 56 undefined N/A 30.09 1019 N/A 0 0
7:54 pm 19:54 undefined 63 17.2 48 8.9 58 58 undefined N/A 30.1 1019 N/A 0 0
8:54 pm 20:54 undefined 63 17.2 48 8.9 58 58 undefined N/A 30.11 1020 N/A 0 0
9:54 pm 21:54 undefined 62 16.7 48 8.9 60 60 undefined N/A 30.11 1020 N/A 0 0
10:54 pm 22:54 undefined 60 15.6 49 9.4 67 67 undefined N/A 30.11 1020 N/A 0 0
11:54 pm 23:54 undefined 59 15 49 9.4 69 69 undefined N/A 30.11 1020 N/A 0 0

Powered by AerisWeather